{"data":{"norad_id":59466,"intl_designator":"2024-068M","name":"STARLINK-31462","alt_names":[],"object_type":"PAYLOAD","status":"ACTIVE","operator":null,"country":"US","launch_date":"2024-04-10","launch_site_code":"AFETR","launch_vehicle":null,"mission":null,"orbit_class":"UNKNOWN","rcs_meters":null,"size_class":null,"mass_kg":null,"dimensions":null,"purposes":["comms"],"wikipedia_slug":null,"has_3d_model":false,"image_url":null,"decayed_at":null,"tle_current":{"epoch":"2026-09-20T23:58:54.498432Z","epoch_age_seconds":122026,"freshness":"FRESH","line1":"1 59466U 24068M   26263.99924188 -.00000425  00000+0 -59232-5 0  9997","line2":"2 59466  43.0027  11.4231 0001021 271.5685  88.5049 15.27573914138390","mean_motion":15.27573914,"eccentricity":0.0001021,"inclination_deg":43.0027,"raan_deg":11.4231,"arg_perigee_deg":271.5685,"mean_anomaly_deg":88.5049,"bstar":-5.9232e-6,"rev_number":13839,"period_min":94.267124281359,"perigee_km":482.36679081253,"apogee_km":483.76784873463,"semimajor_km":6861.2043197736,"source":"CELESTRAK","updated_at":"2026-09-22T09:00:48.948793Z"}}}